This is the latest recevied weather packets stored in our database for station/object AA9VI-10. If no packets are shown the sender has not sent any weather packets the latest 10 day(s).
| Time | Temp. | Humidity | Pressure | Rain* | Wind** | Luminosity | Snow |
|---|---|---|---|---|---|---|---|
| 1777865417 | 15° C | 58% | 1005.7 hPa | 0 mm | - | - | - |
| 1777864817 | 15.56° C | 58% | 1005.8 hPa | 0 mm | - | - | - |
| 1777864217 | 15.56° C | 57% | 1006 hPa | 0 mm | - | - | - |
| 1777863617 | 15.56° C | 57% | 1006 hPa | 0 mm | - | - | - |
| 1777863017 | 15.56° C | 56% | 1006 hPa | 0 mm | - | - | - |
| 1777862417 | 16.11° C | 56% | 1005.9 hPa | 0 mm | - | - | - |
| 1777861817 | 16.11° C | 55% | 1006 hPa | 0 mm | - | - | - |
| 1777861217 | 16.11° C | 54% | 1005.9 hPa | 0 mm | - | - | - |
| 1777860617 | 16.67° C | 53% | 1005.9 hPa | 0 mm | - | - | - |
| 1777860017 | 16.67° C | 52% | 1005.8 hPa | 0 mm | - | - | - |
| 1777859417 | 17.22° C | 51% | 1005.7 hPa | 0 mm | - | - | - |
| 1777858817 | 17.22° C | 50% | 1005.6 hPa | 0 mm | - | - | - |
| 1777858217 | 17.22° C | 50% | 1005.5 hPa | 0 mm | - | - | - |
| 1777857617 | 17.78° C | 49% | 1005.3 hPa | 0 mm | - | - | - |
| 1777857017 | 17.78° C | 48% | 1005.2 hPa | 0 mm | - | - | - |
| 1777856417 | 18.33° C | 46% | 1005.1 hPa | 0 mm | - | - | - |
| 1777855817 | 18.89° C | 46% | 1005.2 hPa | 0 mm | - | - | - |
| 1777855217 | 18.89° C | 45% | 1005.4 hPa | 0 mm | - | - | - |
| 1777854617 | 19.44° C | 44% | 1005.4 hPa | 0 mm | - | - | - |
| 1777854017 | 19.44° C | 43% | 1005.4 hPa | 0 mm | - | - | - |
| 1777853417 | 19.44° C | 42% | 1005.3 hPa | 0 mm | - | - | - |
| 1777852817 | 20° C | 42% | 1005.4 hPa | 0 mm | - | - | - |
| 1777852217 | 20° C | 41% | 1005.4 hPa | 0 mm | - | - | - |
| 1777851617 | 20° C | 42% | 1005.4 hPa | 0 mm | - | - | - |
| 1777851017 | 20° C | 41% | 1005.4 hPa | 0 mm | - | - | - |
* Rain latest hour (hover to see other rain measurements)
** Current wind speed in m/s (hover to see current wind gust speed)